SHIJIAN-6 02A (SJ-6 02A)

Last updated on Sun Apr 12 2026 00:03:41 GMT+0000 (Coordinated Universal Time)

1 29505U 06046A 26101.51682631 .00008780 00000+0 45761-3 0 9997 2 29505 97.6441 142.0988 0003599 37.2397 322.9084 15.16216229 62161
UTC large
Height (km)
Speed (km/s)
/
Latitude / Longitude
Inclination (degrees)
Orbital Period (minutes)
Azimuth
Elevation
Range (km)
Doppler Factor

Next 0 passes for location: London (51.5072 / 0.1276)

Sorry there are no passes over London.
SHIJIAN-6 02A (SJ-6 02A)